VIKING

Satellite information

Favourite Embed

Satellite Type and Status

PAYLOADIN ORBIT

Key statistics

Satellite VIKING at a glance.

Uptime

14438

Days in orbit

Revolutions

≈ 5.5

Per day

Orbit

HEO

HEO

Inclination

98.8

Latest

Satellite identification and parameters

Extended collection of information and parameters for VIKING.

Object identification

Identified? True

Debris? False

Object name: VIKING

International designator: 1986-019B

Object number (NORAD): 16614

Object ID (CCSDS): 16614

Country: SWEDEN (SWED)

Current information (Y/N): Y

RCS size: LARGE

Orbital parameters

Period: 261.539 minutes

Inclination: 98.7636 deg

SMA: 13547.262 km

Apoapsis: 13521.26 km

Periapsis: 816.995 km

RAAN: 204.202 deg

Eccentricy: 0.46888678

Argument of periapsis: 37.3091 deg

Mean anomaly: 6.7701 deg

Mean motion: 5.50586362 rev/day

Mean motion (dot): 0.00000039 rev/day2

B* drag term: 0.00010708957 1/REarth

Two-line elements (TLE)

Creation date: Sept. 3, 2025, 2:21 a.m.

Reference frame: TEME

Reference center: EARTH

Epoch: Sept. 2, 2025, 7:39 p.m. UTC

TLE line 0: 0 VIKING

TLE line 1: 1 16614U 86019B 25245.81914839 .00000039 00000-0 10709-3 0 9995

TLE line 2: 2 16614 98.7636 204.2020 4688868 37.3091 6.7701 5.50586362794438

Live tracking on map

Real-time ground track for satellite VIKING.

In-orbit conjunctions

There are no conjunctions computed for VIKING, at the moment. Check back to stay up to date, as we update our databases every day.

Go to all conjunctions

Associated space launch

SPOT 1 is a French Earth observation satellite. Viking is Sweden's first satellite.

VIKING was lifted into orbit during the mission ‘Ariane 1 | SPOT 1 & Viking’, on board a Ariane 1 space rocket.

The launch took place on Feb. 22, 1986, 1:44 a.m. from Ariane Launch Area 1 (ELV).

For more information about the launch, click the button.

Launch to space Ariane 1 | SPOT 1 & Viking
Ariane 1 | SPOT 1 & Viking

Agency: N/A

Status: Launch Successful

Launch date: Feb. 22, 1986, 1:44 a.m. UTC

Rocket: Ariane 1

Launch pad: Ariane Launch Area 1 (ELV)

Location: Guiana Space Centre, French Guiana

...

Latest news about this satellite

There are no fresh news available about this satellite. Check back as we update our databases every day.


Newsletter sign-up

Weekly statistics, charts and insights to help you stay on top of the space industry.